[[{"header":{"parameterUnit":"m.s-1","parameterCategory":1,"la1":30.2992,"la2":30.254,"lo1":-89.0895,"lo2":-89.0443,"dy":0.0025,"dx":0.0025,"nx":19,"ny":19,"refTime":"2026-03-16T21:00:00:Z","depth":0,"parameterNumber":2,"parameterNumberName":"U-component_of_WINDS"},"data":[0,0,0,0.682,0.6821,0.6852,0.6853,0.6887,0.6887,0,0,0,0,0,0,0,0,0,0,0,0.6807,0.6807,0.682,0.6821,0.6852,0.6853,0.6887,0.6887,0,0,0,0,0,0,0,0,0,0,0,0.6807,0.6807,0.6807,0.6821,0.6852,0.6853,0.6887,0.6865,0,0,0,0,0,0,0,0,0,0,0.6836,0.6819,0.6807,0.6807,0.6821,0.6852,0.6853,0.6864,0.6867,0.687,0,0.6871,0,0.688,0.6889,0.6889,0,0,0,0.6824,0.6817,0.6829,0.6807,0.6821,0.6852,0.6839,0.6866,0.6868,0.6873,0.6872,0.6873,0.688,0.6889,0.689,0.6897,0.6897,0,0,0.6822,0.681,0.6827,0.6831,0.6825,0.6838,0.684,0.6867,0.6866,0.6872,0.6874,0.6881,0.689,0.689,0.6897,0.6897,0,0,0,0.6815,0.6809,0.6821,0.6829,0.6835,0.6839,0.6841,0.6864,0.6869,0.6875,0.6881,0.689,0.689,0.6898,0.6897,0.688,0,0,0,0.6814,0.6805,0.682,0.6813,0.6835,0.685,0.6837,0.6867,0.6871,0.6881,0.689,0.689,0.6898,0.6897,0.688,0.6873,0,0,0,0.6806,0.6804,0.6807,0.6812,0.6825,0.685,0.6857,0.6868,0.6875,0.6889,0.689,0.6898,0.6897,0.6881,0.6874,0.6871,0,0,0,0.6794,0.6791,0.6806,0.6805,0.6825,0.6839,0.6856,0.6868,0.6878,0.689,0.6898,0.6897,0.6881,0.6875,0.6872,0.6866,0.6863,0,0,0.6783,0.6789,0.6789,0.6804,0.6812,0.6835,0.6841,0.6862,0.6875,0.6889,0.689,0.688,0.6874,0.6871,0.6849,0.6846,0,0,0,0.6782,0.6782,0.6787,0.6796,0.6812,0.6825,0.6847,0.6855,0.6868,0.6879,0.6879,0.6876,0.6875,0.6873,0.687,0.687,0.6896,0.6896,0.6896,0.6749,0.6765,0.6767,0.6787,0.6796,0.6819,0.6828,0.6843,0.6857,0.6856,0.686,0.6845,0.6842,0.684,0.684,0.6859,0.6859,0.6859,0.6859,0.6734,0.6737,0.6756,0.6764,0.6782,0.679,0.6812,0.6822,0.6832,0.6843,0.6843,0.6853,0.6836,0.6837,0.6858,0.6858,0.6858,0.6858,0.6858,0.6714,0.6718,0.6728,0.6743,0.6753,0.6775,0.6783,0.6799,0.6815,0.6815,0.6821,0.6821,0.6823,0.6816,0.6816,0.6816,0.6816,0.6816,0.6816,0.6688,0.67,0.6705,0.6722,0.6731,0.6744,0.6767,0.6776,0.679,0.6801,0.6801,0.6815,0.6832,0.6835,0.6815,0.6816,0.6816,0.6816,0.6816,0.6666,0.6674,0.6682,0.669,0.6712,0.6721,0.6742,0.6759,0.6769,0.6773,0.6787,0.6797,0.6804,0.6806,0.6809,0.6784,0.6784,0.6784,0.6784,0.6649,0.6654,0.6666,0.6678,0.6692,0.6712,0.6721,0.674,0.676,0.6767,0.6774,0.6779,0.6781,0.6787,0.6789,0.6793,0.6763,0.6763,0.6763,0.6636,0.6644,0.6648,0.6668,0.6686,0.6702,0.6711,0.6725,0.675,0.6763,0.6773,0.6774,0.6784,0.6786,0.6798,0.6801,0.6807,0,0]},{"header":{"parameterUnit":"m.s-1","parameterCategory":1,"la1":30.2992,"la2":30.254,"lo1":-89.0895,"lo2":-89.0443,"dy":0.0025,"dx":0.0025,"nx":19,"ny":19,"refTime":"2026-03-16T21:00:00:Z","depth":0,"parameterNumber":3,"parameterNumberName":"V-component_of_WINDS"},"data":[0,0,0,-3.7581,-3.7582,-3.7654,-3.7654,-3.7743,-3.7743,0,0,0,0,0,0,0,0,0,0,0,-3.7559,-3.7559,-3.7581,-3.7583,-3.7654,-3.7654,-3.7742,-3.7743,0,0,0,0,0,0,0,0,0,0,0,-3.7558,-3.7559,-3.756,-3.7583,-3.7654,-3.7654,-3.7742,-3.7689,0,0,0,0,0,0,0,0,0,0,-3.762,-3.7598,-3.7559,-3.756,-3.7583,-3.7654,-3.7654,-3.7687,-3.7692,-3.7709,0,-3.7724,0,-3.7736,-3.7749,-3.7749,0,0,0,-3.7583,-3.7593,-3.7614,-3.756,-3.7584,-3.7654,-3.7622,-3.769,-3.7696,-3.7717,-3.7726,-3.7729,-3.7737,-3.775,-3.775,-3.785,-3.7851,0,0,-3.7579,-3.757,-3.761,-3.7619,-3.7609,-3.762,-3.7624,-3.7694,-3.7702,-3.7726,-3.7731,-3.7738,-3.775,-3.7751,-3.785,-3.785,0,0,0,-3.7567,-3.7567,-3.7587,-3.7615,-3.7628,-3.7622,-3.7627,-3.7699,-3.7706,-3.7732,-3.7739,-3.7751,-3.7752,-3.7849,-3.785,-3.7867,0,0,0,-3.7565,-3.7561,-3.7585,-3.758,-3.7627,-3.7665,-3.7631,-3.7702,-3.771,-3.7739,-3.7751,-3.7753,-3.7849,-3.785,-3.7865,-3.7876,0,0,0,-3.7554,-3.7559,-3.757,-3.7579,-3.761,-3.7664,-3.7675,-3.7704,-3.7714,-3.7749,-3.7753,-3.7849,-3.785,-3.7864,-3.7874,-3.7902,0,0,0,-3.7539,-3.758,-3.757,-3.7619,-3.761,-3.7674,-3.7675,-3.7722,-3.7754,-3.7751,-3.7849,-3.785,-3.7864,-3.7872,-3.7901,-3.7926,-3.7935,0,0,-3.7586,-3.7586,-3.7615,-3.7608,-3.7673,-3.7664,-3.773,-3.7766,-3.7775,-3.7825,-3.7827,-3.7866,-3.7874,-3.7902,-3.7987,-3.7995,0,0,0,-3.7627,-3.7649,-3.7668,-3.7699,-3.773,-3.7757,-3.7785,-3.7798,-3.7841,-3.78,-3.7883,-3.7888,-3.7905,-3.7917,-3.7924,-3.794,-3.7855,-3.7855,-3.7855,-3.768,-3.7694,-3.7745,-3.7768,-3.7798,-3.7828,-3.7854,-3.7878,-3.7879,-3.7899,-3.7914,-3.7965,-3.7979,-3.7984,-3.8,-3.7927,-3.7927,-3.7927,-3.7927,-3.7752,-3.7785,-3.7791,-3.7842,-3.7856,-3.7898,-3.7929,-3.7929,-3.7971,-3.7953,-3.7969,-3.795,-3.7991,-3.8007,-3.7928,-3.7928,-3.7928,-3.7928,-3.7928,-3.7789,-3.7808,-3.7826,-3.7877,-3.7913,-3.7934,-3.7976,-3.7986,-3.7995,-3.801,-3.8029,-3.8029,-3.8031,-3.8018,-3.8018,-3.8019,-3.8019,-3.8019,-3.8019,-3.7822,-3.7842,-3.7877,-3.7916,-3.794,-3.7972,-3.8004,-3.8027,-3.8055,-3.8059,-3.8059,-3.8061,-3.7993,-3.7976,-3.8022,-3.8021,-3.8021,-3.8021,-3.802,-3.7892,-3.7879,-3.7932,-3.7956,-3.8005,-3.8042,-3.8055,-3.8102,-3.8123,-3.8143,-3.8142,-3.8089,-3.8089,-3.8084,-3.8071,-3.8137,-3.8137,-3.8137,-3.8138,-3.7925,-3.7926,-3.7986,-3.8024,-3.8063,-3.8082,-3.8143,-3.8169,-3.8194,-3.8207,-3.8199,-3.8182,-3.8176,-3.8179,-3.8172,-3.816,-3.8248,-3.8248,-3.8248,-3.797,-3.7976,-3.8027,-3.8053,-3.8093,-3.8126,-3.8185,-3.8229,-3.8253,-3.8253,-3.8219,-3.8214,-3.8187,-3.8177,-3.8176,-3.8165,-3.8143,0,0]}]]